Home   Weather   Newmarket   Past weeks

Flag for Canada Past Weather in Newmarket, Ontario, Canada — Yesterday and Last 2 Weeks

Now
63 °F

Passing clouds.


Feels Like: 63 °F
Forecast: N/A
Wind: 13 mph from Southeast

Location: Borden

Current Time: Apr 24, 2017 at 5:04:53 pm

Latest Report: Apr 24, 2017 at 4:00 pm


Visibility: 9 mi

Pressure: 30.11 "Hg

Humidity: 45%

Dew Point: 41 °F

Location of NewmarketLocation

Past Weather in Newmarket — Graph

°F

Newmarket Temperature Yesterday

Maximum temperature yesterday: 68 °F (at 2:00 pm)
Minimum temperature yesterday: 25 °F (at 4:00 am)
Average temperature yesterday: 45 °F

High & Low Weather Summary for the Past Weeks

 TemperatureHumidityPressure
High75 °F (Apr 10, 2:00 pm)100% (Apr 11, 12:37 am)30.52 "Hg (Apr 11, 12:37 am)
Low19 °F (Apr 18, 6:00 am)22% (Apr 14, 6:00 pm)29.67 "Hg (Apr 16, 11:00 am)
Average47 °F75%30.08 "Hg
* Reported Apr 9 3:00 pm — Apr 24 3:00 pm, Newmarket, Weather by CustomWeather, © 2017

Note: Actual official high and low records may vary slightly from our data, if they occured in-between our weather recording intervals... More about our weather records

Advertising

Newmarket Weather History for the Previous 24 Hours

Scroll right to see more
 ConditionsComfort  
Time TempWeatherWind HumidityBarometerVisibility
3:00 pm
Mon, Apr 24
63 °FPassing clouds.7 mph49%30.12 "Hg9 mi
2:00 pm61 °FSunny.12 mph52%30.14 "Hg9 mi
1:00 pm57 °FSunny.10 mph59%30.16 "Hg9 mi
12:00 pm54 °FSunny.10 mph58%30.19 "Hg9 mi
11:00 am52 °FSunny.9 mph62%30.19 "Hg9 mi
10:00 am48 °FSunny.6 mph66%30.21 "Hg9 mi
9:00 am46 °FSunny.8 mph66%30.21 "Hg9 mi
8:00 am43 °FSunny.5 mph87%30.19 "Hg9 mi
7:00 am30 °FPassing clouds.No wind100%30.19 "Hg9 mi
6:00 am32 °FClear.No wind93%30.17 "Hg9 mi
5:00 am34 °FClear.2 mph93%30.16 "Hg9 mi
4:00 am34 °FClear.No wind93%30.14 "Hg9 mi
3:00 am36 °FClear.No wind93%30.13 "Hg9 mi
2:00 am37 °FClear.No wind93%30.12 "Hg9 mi
1:00 am34 °FClear.No wind93%30.11 "Hg9 mi
12:00 am36 °FClear.3 mph93%30.11 "Hg9 mi
11:00 pm
Sun, Apr 23
39 °FClear.No wind81%30.11 "Hg9 mi
10:00 pm45 °FOvercast.2 mph71%30.12 "Hg9 mi
9:00 pm45 °FPassing clouds.3 mph71%30.11 "Hg9 mi
8:00 pm48 °FSunny.12 mph58%30.10 "Hg9 mi
7:00 pm54 °FSunny.13 mph51%30.08 "Hg9 mi
6:00 pm55 °FSunny.10 mph51%30.06 "Hg9 mi
5:00 pm59 °FSunny.15 mph42%30.04 "Hg9 mi
Weather by CustomWeather, © 2017

See weather overviewHow to use our weather pages